Location: Bagnara
(41.0500°N, 14.7833°E)
Time: 07:54:27
(UTC+00:00)

Meteor 2-3 Rocket - Pass Details

Date: 26 October 2021
Orbit: 842 x 885 km, 81.2° (Epoch: 30 November)

Event Time Altitude Azimuth Distance (km) Brightness Sun altitude
Rises 18:40:09 0° 358° (N) 3,420 7.0 -30.0°
Reaches altitude 10° 18:42:47 10° 7° (N) 2,486 6.1 -30.4°
Enters shadow 18:42:59 11° 8° (N) 2,419 6.1 -30.5°
